Location: Mountain Grove
(34.0887°N, 86.6172°W)
Time: 20:59:52
(UTC+00:00)

NOSS 3-4 (A) - Pass Details

Date: 14 July 2020
Orbit: 892 x 1320 km, 63.4° (Epoch: 12 July)

Event Time Altitude Azimuth Distance (km) Brightness Sun altitude
Rises 03:03:15 0° 331° (NNW) 3,895 8.0 -21.3°
Reaches altitude 10° 03:05:50 10° 334° (NNW) 2,995 7.1 -21.6°
Maximum altitude 03:13:03 69° 58° (ENE) 1,283 4.0 -22.6°
Enters shadow 03:16:05 40° 128° (SE) 1,752 4.3 -23.0°
